Simultaneous Nadir Overpasses (SNOs) Predictions

Prediction of SNOs between GOES-16 and AQUA Satellite Orbit:

Table of predicted SNOs for the next 14.0 days since TLE Epoch: 2/11/2017
Index Date Time (GOES-16) GOES-16 Lat,Lon AQUA Lat,Lon Distance(km) Time Diff (sec)
1 02/11/2017 07:40:00 -0.02, -89.49 0.27, -90.74 142.85 80
2 02/13/2017 07:25:11 -0.02, -89.50 -0.41, -87.80 194.45 80
3 02/13/2017 19:46:34 0.02, -89.51 -0.74, -92.98 395.10 80
4 02/15/2017 19:34:24 0.02, -89.53 -0.11, -90.03 57.14 80
5 02/17/2017 19:24:56 0.02, -89.55 0.58, -87.09 281.28 80
6 02/18/2017 07:46:10 -0.02, -89.56 0.56, -92.23 304.61 80
7 02/20/2017 07:31:20 -0.03, -89.58 -0.07, -89.28 33.90 80
8 02/22/2017 07:19:10 -0.03, -89.61 -0.71, -86.33 372.50 80
9 02/22/2017 19:40:35 0.03, -89.61 -0.37, -91.52 217.30 80
10 02/24/2017 19:31:05 0.04, -89.64 0.27, -88.57 121.77 80




NCC Satellite Simultaneous Nadir Overpasses (SNOs) Prediction Service
